Location: ?
(35.4554°N, 139.3092°E)
Time: 22:46:01
(UTC+00:00)

Cosmos 1125 Rocket - Pass Details

Date: 21 April 2021
Orbit: 758 x 779 km, 74.0° (Epoch: 10 May)

Event Time Altitude Azimuth Distance (km) Brightness Sun altitude
Exits shadow 18:47:24 21° 225° (SW) 1,662 4.7 -15.0°
Maximum altitude 18:50:38 48° 291° (WNW) 1,001 3.8 -14.4°
Drops below altitude 10° 18:55:43 10° 6° (N) 2,317 6.4 -13.4°
Sets 18:58:11 0° 12° (NNE) 3,244 7.3 -13.0°
